カタログに戻る

YAM-9

運用中軍事SSO
NORAD 66694·PAYLOAD·🇺🇸 United States

打ち上げ Nov 28, 2025 から Vandenberg Space Force Base

Loading…

次のパス (今後24時間)

TLE

最新Source: Space-Track

元期: Sep 14, 2026, 11:20 UTC

1 66694U 25276AE  26257.47224838  .00004167  00000-0  22193-3 0  9991
2 66694  97.4135 327.9035 0008677  13.0673 347.0783 15.15719501 43878

AllMySatでYAM-9をリアルタイム追跡

Download on the App Store